Home > Weather > London > Past weeks

Flag for United Kingdom Past Weather in London, England, United Kingdom — Yesterday and Last 2 Weeks

Now
68 °F

Partly sunny.


Feels Like: 68 °F
Forecast: 57 / 67 °F
Wind: 14 mph from Southwest

Location: Northolt

Current Time: Jun 30, 2016 at 4:59:09 PM

Latest Report: Jun 30, 2016 at 3:50 PM


Visibility: N/A

Pressure: 29.80 "Hg

Humidity: 60%

Dew Point: 54 °F

Location of LondonLocation

Past Weather in London — Graph

°F

London Temperature Yesterday

Maximum temperature yesterday: 61 °F (at 8:50 AM)
Minimum temperature yesterday: 50 °F (at 4:50 AM)
Average temperature yesterday: 57 °F

High & Low Weather Summary for the Past Weeks

 TemperatureHumidityPressure
High72 °F (Jun 22, 4:50 PM)100% (Jun 19, 10:50 PM)30.24 "Hg (Jun 19, 10:50 PM)
Low48 °F (Jun 28, 4:50 AM)40% (Jun 28, 12:50 PM)29.42 "Hg (Jun 15, 3:50 PM)
Average61 °F79%29.94 "Hg
* Reported Jun 15 3:50 PM — Jun 30 3:50 PM, London, Weather by CustomWeather, © 2016

Note: Actual official high and low records may vary slightly from our data, if they occured in-between our weather recording intervals... More about our weather records

Advertising

London Weather History for the Previous 24 Hours

Scroll right to see more
 ConditionsComfort  
Time TempWeatherWind HumidityBarometerVisibility
3:50 PM
Thu, Jun 30
68 °FPartly sunny.14 mph60%29.80 "HgN/A
2:50 PM68 °FBroken clouds.10 mph60%29.80 "HgN/A
1:50 PM68 °FBroken clouds.14 mph56%29.80 "HgN/A
12:50 PM68 °FBroken clouds.14 mph56%29.80 "HgN/A
11:50 AM64 °FBroken clouds.9 mph73%29.80 "HgN/A
10:50 AM64 °FBroken clouds.7 mph73%29.80 "HgN/A
9:50 AM63 °FBroken clouds.7 mph73%29.80 "HgN/A
8:50 AM61 °FBroken clouds.6 mph77%29.80 "HgN/A
7:50 AM59 °FPartly sunny.7 mph82%29.77 "HgN/A
6:50 AM57 °FBroken clouds.5 mph94%29.77 "HgN/A
5:50 AM55 °FPartly sunny.3 mph100%29.77 "HgN/A
4:50 AM55 °FPartly cloudy.5 mph94%29.77 "HgN/A
3:50 AM57 °FPassing clouds.7 mph88%29.77 "HgN/A
2:50 AM57 °FPassing clouds.8 mph88%29.74 "HgN/A
1:50 AM57 °FPartly cloudy.8 mph88%29.74 "HgN/A
12:50 AM57 °FPassing clouds.10 mph88%29.74 "HgN/A
11:50 PM
Wed, Jun 29
57 °FPassing clouds.9 mph88%29.74 "HgN/A
10:50 PM57 °FPartly cloudy.12 mph88%29.74 "HgN/A
9:50 PM59 °FPartly sunny.12 mph82%29.74 "HgN/A
8:50 PM59 °FBroken clouds.13 mph82%29.71 "HgN/A
7:50 PM61 °FPartly sunny.15 mph77%29.71 "HgN/A
6:50 PM59 °FBroken clouds.13 mph88%29.71 "HgN/A
5:50 PM59 °FPartly sunny.15 mph88%29.71 "HgN/A
4:50 PM59 °FDrizzle. Cloudy.14 mph88%29.74 "HgN/A
Weather by CustomWeather, © 2016

See weather overviewHow to use our weather pages